Location: Mapua
(41.2500°S, 173.1000°E)
Time: 13:21:45
(UTC+12:00)

N. Korean satellite - Visible Passes

Search period start: 18 May 2021 00:00
Search period end: 28 May 2021 00:00
Orbit: 450 x 501 km, 97.2° (Epoch: 16 May)

Date Brightness Start Highest point End Pass type
(mag) Time Alt. Az. Time Alt. Az. Time Alt. Az.
18 May 8.0 18:17:14 10° S 18:20:49 42° WSW 18:24:20 10° NW visible
19 May 6.6 17:49:58 10° SSE 17:53:46 85° E 17:57:29 10° N visible
20 May 9.6 18:57:18 10° SSW 18:59:32 15° WSW 19:01:44 10° WNW visible
21 May 8.6 18:29:19 10° S 18:32:38 30° WSW 18:35:54 10° NW visible
22 May 7.1 18:01:52 10° S 18:05:37 67° WSW 18:09:16 10° NNW visible
23 May 9.8 19:10:06 10° SW 19:11:15 11° WSW 19:12:24 10° W visible
24 May 9.1 18:41:26 10° SSW 18:44:23 22° WSW 18:47:17 10° WNW visible
25 May 7.8 18:13:47 10° S 18:17:24 46° WSW 18:20:56 10° NNW visible
26 May 6.6 17:46:32 10° SSE 17:50:18 77° ENE 17:53:58 10° N visible
27 May 9.5 18:53:41 10° SSW 18:56:04 16° WSW 18:58:25 10° WNW visible
